Regional Weather Roundup
Issued by NWS

Home | Current Version | Previous Version | Text Only | Print | Product List | Glossary On
Versions: 1 2 3 4 5 6 7 8 9 10 11 12 13 14 15 16 17 18 19 20 21 22 23 24 25 26 27 28 29 30 31 32 33 34 35 36 37 38 39 40 41 42 43 44 45 46 47 48 49 50
000
ASUS43 KMPX 280401
RWRMN
WEATHER ROUNDUP FOR MINNESOTA
NATIONAL WEATHER SERVICE TWIN CITIES/CHANHASSEN MN
1000 PM CST TUE JAN 27 2015


NOTE: "FAIR" INDICATES FEW OR NO CLOUDS BELOW 12,000 FEET WITH NO
SIGNIFICANT WEATHER AND/OR OBSTRUCTIONS TO VISIBILITY. N/A MEANS
CURRENT SKY AND/OR WEATHER CONDITIONS ARE NOT AVAILABLE.

MNZ060>063-068>070-280500-
   Twin Cities Metro

CITY           SKY/WX    TMP DP  RH WIND       PRES   REMARKS
TWIN CITIES    CLOUDY    31  25  78 SE10      30.13F WCI  22
ST PAUL        CLOUDY    31  26  82 SE9       30.15F WCI  23
CRYSTAL        CLOUDY    32  26  78 SE10      30.11F WCI  24
BLAINE         CLOUDY    32  28  86 SE10      30.12F WCI  24
LAKEVILLE      CLOUDY    30  27  86 SE7       30.12F WCI  23
EDEN PRAIRIE   CLOUDY    32  26  78 S12       30.10F WCI  23
SOUTH ST PAUL  CLOUDY    32  26  81 SE7       30.14F WCI  25
LAKE ELMO      CLOUDY    30  27  86 S10G16    30.14F WCI  21
$$
MNZ001>005-007-008-013>017-022>024-027-028-280500-
   Northwest Minnesota

CITY           SKY/WX    TMP DP  RH WIND       PRES   REMARKS
BEMIDJI        CLOUDY    29  26  88 SE10      29.98S WCI  20
HALLOCK        CLOUDY    32  30  93 S14       29.92F WCI  22
ROSEAU         PTCLDY    30  25  80 S10       29.94F WCI  21
WARROAD        PTCLDY    30  27  86 S6        29.95F WCI  24
THIEF RVR FALL MOCLDY    30  27  86 S10       29.95S WCI  21
CROOKSTON      CLOUDY    32  30  93 S15G21    29.95F WCI  22
FOSSTON        CLOUDY    28  25  86 S6        29.96R WCI  22
DETROIT LAKES  CLOUDY    32  30  93 S17       29.97S WCI  21
MOORHEAD       CLOUDY    34  34 100 S16       29.95F WCI  23
PARK RAPIDS    CLOUDY    31  26  82 SE15      29.99F WCI  20
MAHNOMEN       MOCLDY    30  27  89 S9        29.95S WCI  22
$$
MNZ006-009>011-018-025>026-280500-
   North Central Minnesota

CITY           SKY/WX    TMP DP  RH WIND       PRES   REMARKS
BAUDETTE       CLOUDY    30  23  75 SE6       29.97S WCI  24
FLAG ISLAND    CLOUDY    30  27  86 SE14      29.96S WCI  20
INTL FALLS     CLOUDY    29  25  85 SE6       30.01S WCI  23
WASKISH        PTCLDY    30  27  86 SE9       29.98S WCI  22
BIG FORK       CLEAR     28  25  86 S9        30.02F WCI  20
LONGVILLE      CLOUDY    30  27  86 S15       30.03S WCI  19
GRAND RAPIDS   CLOUDY    28  21  74 SE14      30.04S WCI  17
CRANE LAKE     CLOUDY    27  25  93 SE5       30.06F WCI  21
ORR            CLOUDY    27  21  80 SE6       30.02F WCI  20
COOK           CLOUDY    27  23  86 S7        30.05F WCI  19
WALKER         CLOUDY    30  26  83 S10G18    30.00F WCI  21
$$
MNZ012-019>021-037-280500-
   Northeast Minnesota

CITY           SKY/WX    TMP DP  RH WIND       PRES   REMARKS
DULUTH         CLOUDY    27  22  81 S7        30.08F WCI  19
ELY            CLOUDY    27  23  86 S6        30.07S WCI  20
HIBBING        CLOUDY    28  21  75 S8        30.06F WCI  20
EVELETH        MOCLDY    28  25  86 S6        30.08S WCI  22
DULUTH HARBOR  MOCLDY    30  25  80 S6        30.15S WCI  24
TWO HARBORS    CLOUDY    30  25  80 S5        30.10S WCI  25
SILVER BAY     CLOUDY    28  25  86 CALM      30.10S
GRAND MARAIS     N/A     31  25  78 SW12      30.15S WCI  22
G MARAIS ARPRT   N/A     23  19  86 S3        30.09S
$$
MNZ029>031-032-039>041-046>048-054>057-064-280500-
   West Central Minnesota

CITY           SKY/WX    TMP DP  RH WIND       PRES   REMARKS
FERGUS FALLS   CLOUDY    32  30  93 SE18G24   30.01S WCI  20
WHEATON        CLOUDY    30  30 100 SE17      29.98F WCI  18
MORRIS         CLOUDY    34  32  93 SE17      29.98S FOG     WCI  23
ALEXANDRIA     CLOUDY    31  28  89 S16       30.01F WCI  20
ELBOW LAKE     CLOUDY    32  31  94 SE17G23   29.99S WCI  21
WADENA         CLOUDY    30  27  86 SE14G22   29.99F WCI  20
GLENWOOD       CLOUDY    32  30  93 SE17G23   30.03S WCI  21
APPLETON       FAIR      34  32  93 SE12      29.99S WCI  25
BENSON         CLOUDY    34  30  86 S15       30.01S WCI  24
ORTONVILLE     CLEAR     32  30  93 SE13G20   29.96F WCI  22
MADISON        CLEAR     37  36  93 SE14      29.98S
WILLMAR        CLOUDY    34  30  86 SE15      30.05S WCI  24
$$
MNZ033>034-036-042>043-049>051-058-059-280500-
   Central Minnesota

CITY           SKY/WX    TMP DP  RH WIND       PRES   REMARKS
ST CLOUD       CLOUDY    31  26  82 S14       30.09R WCI  21
SAUK CENTRE    CLOUDY    32  29  90 SE14G22   30.04F WCI  22
PAYNESVILLE    CLOUDY    30  28  92 E12G17    30.06S WCI  21
AITKIN         CLOUDY    32  25  74 S10       30.06S WCI  24
PINE RIVER     CLOUDY    30  27  86 SE13      30.06F WCI  20
BRAINERD       CLOUDY    30  25  81 S10       30.06S WCI  21
STAPLES        CLOUDY    30  27  86 SE12G20   30.02F WCI  21
LONG PRAIRIE   CLOUDY    32  28  86 SE13      30.04F WCI  22
LITTLE FALLS   CLOUDY    32  27  80 SE10      30.07F WCI  24
LITCHFIELD     CLOUDY    34  32  93 SE9       30.07F WCI  26
BUFFALO        CLOUDY    32  27  83 SE8       30.11S WCI  24
MAPLE LAKE     CLOUDY    32  30  91 SE7       30.10S WCI  26
$$
MNZ037-044-045-052-053-280500-
   East Central Minnesota

CITY           SKY/WX    TMP DP  RH WIND       PRES   REMARKS
PRINCETON      CLOUDY    32  27  80 S9        30.11S WCI  24
MORA           CLOUDY    30  25  80 S10       30.13R WCI  21
CAMBRIDGE      CLOUDY    32  23  69 SE7       30.10F WCI  26
RUSH CITY      CLOUDY    29  24  82 SE8       30.12F WCI  21
MOOSE LAKE     CLOUDY    30  25  80 S7        30.08F WCI  23
HINCKLEY       CLOUDY    30  27  86 S12       30.12S WCI  21
CLOQUET        MOCLDY    27  21  80 SE3       30.08F
MCGREGOR       CLOUDY    30  27  86 S9        30.08S WCI  22
$$
MNZ071>073-080-081-089-090-097-098-280500-
   Southwest Minnesota

CITY           SKY/WX    TMP DP  RH WIND       PRES   REMARKS
MONTEVIDEO     CLEAR     34  34 100 S14       30.01F WCI  24
GRANITE FALLS  CLEAR     33  31  94 SE15      30.02S WCI  23
CANBY          CLEAR     33  32  98 SE8       29.98S WCI  25
MARSHALL       CLEAR     34  28  80 SE12      30.00S WCI  25
REDWOOD FALLS  MOCLDY    33  31  92 SE15      30.03F WCI  23
OLIVIA         PTCLDY    32  32 100 SE13      30.04S WCI  22
PIPESTONE      CLEAR     36  32  87 S18G24    29.95F
WINDOM         PTCLDY    34  32  93 SE14G21   30.02F WCI  24
WORTHINGTON    CLEAR     34  28  80 S14       30.00F WCI  24
JACKSON        PTCLDY    32  32 100 SE13      30.04F WCI  22
TRACY          CLEAR     35  33  92 S12       29.98F WCI  27
SLAYTON        CLEAR     34  32  93 SE18      29.98F WCI  23
$$
MNZ065>067-074>077-082>085-091>093-280500-
   South Central Minnesota

CITY           SKY/WX    TMP DP  RH WIND       PRES   REMARKS
MANKATO        CLOUDY    32  27  80 SE17      30.09F WCI  21
NEW ULM        PTCLDY    32  28  86 SE12G18   30.06F WCI  23
ST JAMES       MOCLDY    34  30  86 SE13G18   30.07F WCI  25
FAIRMONT       CLOUDY    32  27  80 SE15      30.06F WCI  22
GLENCOE        CLOUDY    33  31  92 SE8G16    30.08F WCI  26
FARIBAULT      CLOUDY    30  28  93 SE10      30.12F WCI  21
OWATONNA       CLOUDY    30  27  86 SE12      30.12S WCI  21
WASECA         CLOUDY    32  30  93 SE15      30.11F WCI  22
ALBERT LEA     CLOUDY    30  28  93 S12G17    30.11F WCI  21
$$
MNZ078>079-086>088-094>096-280500-
   Southeast Minnesota

CITY           SKY/WX    TMP DP  RH WIND       PRES   REMARKS
ROCHESTER      CLOUDY    28  24  85 S15       30.14F WCI  16
RED WING       CLOUDY    30  25  80 S8        30.15F WCI  23
STANTON        CLOUDY    32  27  81 SE8       30.13S WCI  25
DODGE CENTER   CLOUDY    28  28 100 S15       30.12F WCI  17
WINONA         CLOUDY    30  23  74 SE6       30.21R WCI  24
AUSTIN         CLOUDY    28  27  93 SE7       30.13F WCI  21
PRESTON        CLOUDY    27  24  86 S9        30.16S WCI  18
$$
ABBREVIATIONS USED IN REMARKS
   TC - TEMPERATURES IN CELSIUS
  WCI - WIND CHILL INDEX
   HX - HEAT INDEX
  VSB - VISIBILITY
$$



USA.gov is the U.S. government's official web portal to all federal, state and local government web resources and services.